| time (UTC) | temp F | wind direction | speed knots | gust knots | rain 1hr in | rain 24hr in | rain mn in | humidity % | barometer mb |
| 20260502163059 | 55 | 134 | 3.5 | 11.3 | 0.00 | 0.00 | 0.00 | 100 | 1019.0 |
| 20260502161620 | 55 | 191 | 6.1 | 13.0 | 0.00 | 0.00 | 0.00 | 100 | 1019.3 |
| 20260502151609 | 58 | 178 | 6.1 | 17.4 | 0.00 | 0.00 | 0.00 | 100 | 1019.6 |
| 20260502123100 | 59 | 194 | 7.8 | 15.6 | 0.00 | 0.00 | 0.00 | 89 | 1021.6 |
| 20260502121559 | 60 | 161 | 6.1 | 15.6 | 0.00 | 0.00 | 0.00 | 85 | 1021.4 |
| 20260502120114 | 60 | 125 | 4.3 | 16.5 | 0.00 | 0.00 | 0.00 | 78 | 1021.5 |
| 20260502114557 | 61 | 90 | 3.5 | 13.9 | 0.00 | 0.00 | 0.00 | 76 | 1021.6 |
| 20260502113057 | 61 | 96 | 7.0 | 19.1 | 0.00 | 0.00 | 0.00 | 77 | 1021.8 |
| 20260502111606 | 61 | 88 | 5.2 | 19.1 | 0.00 | 0.00 | 0.00 | 76 | 1022.2 |
| 20260502110058 | 61 | 128 | 6.1 | 13.9 | 0.00 | 0.00 | 0.00 | 79 | 1022.1 |
| 20260502104555 | 61 | 355 | 5.2 | 17.4 | 0.00 | 0.00 | 0.00 | 81 | 1022.7 |
| 20260502103057 | 59 | 126 | 4.3 | 21.7 | 0.00 | 0.00 | 0.00 | 85 | 1022.6 |
| 20260502101556 | 59 | 124 | 4.3 | 20.0 | 0.00 | 0.00 | 0.00 | 87 | 1022.6 |
| 20260502090106 | 58 | 203 | 5.2 | 20.0 | 0.00 | 0.00 | 0.00 | 89 | 1022.7 |
| 20260502070107 | 52 | 151 | 6.1 | 14.8 | 0.00 | 0.00 | 0.00 | 100 | 1022.2 |
| 20260502064558 | 53 | 90 | 5.2 | 22.6 | 0.00 | 0.00 | 0.00 | 100 | 1022.4 |
| 20260502063057 | 53 | 29 | 7.0 | 17.4 | 0.00 | 0.00 | 0.00 | 100 | 1022.4 |
| 20260502061555 | 53 | 101 | 6.1 | 13.0 | 0.00 | 0.00 | 0.00 | 100 | 1022.4 |
| 20260502060058 | 53 | 135 | 4.3 | 10.4 | 0.00 | 0.00 | 0.00 | 100 | 1022.2 |
| 20260502054556 | 52 | 82 | 3.5 | 14.8 | 0.00 | 0.00 | 0.00 | 100 | 1021.9 |
| 20260502053119 | 52 | 107 | 3.5 | 11.3 | 0.00 | 0.00 | 0.00 | 100 | 1022.2 |
| 20260502051607 | 51 | 124 | 3.5 | 10.4 | 0.00 | 0.00 | 0.00 | 100 | 1021.9 |
| 20260502050057 | 51 | 75 | 5.2 | 13.0 | 0.00 | 0.00 | 0.00 | 100 | 1022.0 |
| 20260502044557 | 51 | 146 | 4.3 | 17.4 | 0.00 | 0.00 | 0.00 | 100 | 1022.1 |
| 20260502043112 | 51 | 110 | 3.5 | 13.9 | 0.00 | 0.00 | 0.00 | 100 | 1021.9 |
| 20260502041631 | 51 | 137 | 5.2 | 13.9 | 0.00 | 0.00 | 0.00 | 100 | 1022.0 |
| 20260502040059 | 52 | 82 | 1.7 | 9.6 | 0.00 | 0.00 | 0.00 | 100 | 1022.2 |
| 20260502034556 | 52 | 278 | 6.1 | 14.8 | 0.00 | 0.00 | 0.00 | 100 | 1022.2 |
| 20260502033106 | 52 | 101 | 5.2 | 13.0 | 0.00 | 0.00 | 0.00 | 100 | 1022.1 |
| 20260502031554 | 52 | 201 | 2.6 | 15.6 | 0.00 | 0.00 | 0.00 | 100 | 1022.6 |
| 20260502030100 | 52 | 150 | 6.1 | 16.5 | 0.00 | 0.00 | 0.00 | 100 | 1022.4 |
| 20260502024557 | 52 | 141 | 3.5 | 14.8 | 0.00 | 0.00 | 0.00 | 100 | 1022.3 |
| 20260502023059 | 52 | 169 | 4.3 | 17.4 | 0.00 | 0.00 | 0.00 | 100 | 1022.4 |
| 20260502021556 | 51 | 153 | 4.3 | 17.4 | 0.00 | 0.00 | 0.00 | 100 | 1022.5 |
| 20260502020106 | 51 | 158 | 2.6 | 13.0 | 0.00 | 0.00 | 0.00 | 100 | 1022.9 |
| 20260502014557 | 51 | 267 | 3.5 | 13.9 | 0.00 | 0.00 | 0.00 | 100 | 1022.7 |
| 20260502013105 | 52 | 62 | 3.5 | 13.9 | 0.00 | 0.00 | 0.00 | 100 | 1022.8 |
| 20260502011608 | 52 | 98 | 3.5 | 13.9 | 0.00 | 0.00 | 0.00 | 100 | 1022.9 |
| 20260502010104 | 52 | 118 | 2.6 | 10.4 | 0.00 | 0.00 | 0.00 | 100 | 1023.2 |
| 20260502004600 | 52 | 161 | 3.5 | 13.9 | 0.00 | 0.00 | 0.00 | 100 | 1023.2 |
| 20260502003056 | 51 | 71 | 3.5 | 16.5 | 0.00 | 0.00 | 0.00 | 100 | 1023.2 |
| 20260502001602 | 52 | 117 | 2.6 | 9.6 | 0.00 | 0.00 | 0.00 | 100 | 1023.7 |
| 20260502000056 | 52 | 76 | 5.2 | 10.4 | 0.00 | 0.00 | 0.00 | 100 | 1023.7 |
| 20260501234600 | 51 | 105 | 1.7 | 9.6 | 0.00 | 0.00 | 0.00 | 100 | 1023.9 |
| 20260501233108 | 51 | 89 | 4.3 | 10.4 | 0.00 | 0.00 | 0.00 | 100 | 1023.8 |
| 20260501231624 | 51 | 105 | 3.5 | 11.3 | 0.00 | 0.00 | 0.00 | 100 | 1024.0 |
| 20260501230058 | 51 | 113 | 4.3 | 14.8 | 0.00 | 0.00 | 0.00 | 100 | 1023.8 |
| 20260501224559 | 51 | 97 | 3.5 | 13.9 | 0.00 | 0.00 | 0.00 | 100 | 1023.9 |
| 20260501223132 | 51 | 172 | 2.6 | 8.7 | 0.00 | 0.00 | 0.00 | 100 | 1023.9 |
| 20260501221558 | 50 | 71 | 2.6 | 9.6 | 0.00 | 0.00 | 0.00 | 100 | 1024.1 |
| 20260501220058 | 51 | 101 | 1.7 | 11.3 | 0.00 | 0.00 | 0.00 | 100 | 1024.1 |
| 20260501214557 | 51 | 109 | 3.5 | 9.6 | 0.00 | 0.00 | 0.00 | 100 | 1023.9 |
| 20260501213101 | 51 | 72 | 2.6 | 8.7 | 0.00 | 0.00 | 0.00 | 100 | 1024.1 |
| 20260501211555 | 51 | 76 | 1.7 | 6.1 | 0.00 | 0.00 | 0.00 | 99 | 1024.0 |
| 20260501210059 | 51 | 170 | 0.9 | 9.6 | 0.00 | 0.00 | 0.00 | 95 | 1024.1 |
| 20260501204620 | 51 | 126 | 2.6 | 10.4 | 0.00 | 0.00 | 0.00 | 92 | 1024.0 |
| 20260501203057 | 51 | 108 | 2.6 | 7.0 | 0.00 | 0.00 | 0.00 | 89 | 1024.1 |
| 20260501201606 | 51 | 67 | 2.6 | 7.8 | 0.00 | 0.00 | 0.00 | 86 | 1024.2 |
| 20260501200056 | 51 | 114 | 2.6 | 7.0 | 0.00 | 0.00 | 0.00 | 84 | 1024.1 |
| 20260501194557 | 51 | 187 | 3.5 | 8.7 | 0.00 | 0.00 | 0.00 | 82 | 1024.1 |
| 20260501193056 | 52 | 224 | 3.5 | 12.2 | 0.00 | 0.00 | 0.00 | 80 | 1023.7 |
| 20260501191602 | 52 | 90 | 5.2 | 14.8 | 0.00 | 0.00 | 0.00 | 79 | 1023.9 |
| 20260501190100 | 52 | 92 | 4.3 | 20.0 | 0.00 | 0.00 | 0.00 | 77 | 1023.7 |
| 20260501184603 | 53 | 130 | 3.5 | 12.2 | 0.00 | 0.00 | 0.00 | 77 | 1023.4 |
| 20260501183103 | 53 | 138 | 4.3 | 11.3 | 0.00 | 0.00 | 0.00 | 77 | 1023.5 |
| 20260501181600 | 54 | 198 | 4.3 | 12.2 | 0.00 | 0.00 | 0.00 | 78 | 1023.6 |